Regional Weather Roundup
Issued by NWS

Home | Current Version | Previous Version | Graphics & Text | Print | Product List | Glossary On
Versions: 1 2 3 4 5 6 7 8 9 10 11 12 13 14 15 16 17 18 19 20 21 22 23 24 25 26 27 28 29 30 31 32 33 34 35 36 37 38 39 40 41 42 43 44 45 46 47 48 49 50
000
ASUS43 KDMX 231706
RWRIA

WEATHER ROUNDUP FOR IOWA
NATIONAL WEATHER SERVICE DES MOINES IA
1200 PM CDT SUN APR 23 2017

NOTE: "FAIR" INDICATES FEW OR NO CLOUDS BELOW 12,000 FEET WITH NO
SIGNIFICANT WEATHER AND/OR OBSTRUCTIONS TO VISIBILITY.

* - THESE STATIONS ARE NOT NWS STATIONS...THUS NOT UNDER NWS
QUALITY CONTROL.  THEY ALSO DO NOT REPORT WEATHER SUCH
AS PRECIPITATION OR FOG.

IAZ001>003-012>014-020>022-031>034-043>046-231800-
   NORTHWEST IOWA

CITY           SKY/WX    TMP DP  RH WIND       PRES   REMARKS
CARROLL *      SUNNY     66  30  26 W12       30.11F
CHEROKEE *     SUNNY     64  36  35 S16       30.08S
DENISON *      SUNNY     64  32  29 SW14      30.12F
LE MARS *      SUNNY     66  34  30 SW20G26   30.06F
ORANGE CITY *  SUNNY     64  36  34 SW17G23   30.05F
SHELDON *      SUNNY     64  32  29 SW15G26   30.03F
SIOUX CITY     SUNNY     68  33  27 SW17      30.07F
SPENCER        MOSUNNY   68  30  24 MISG      30.06F
STORM LAKE *     N/A     64  28  25 SW18G24   30.08F
$$

IAZ055>058-069>071-079>083-090>094-231800-
   SOUTHWEST IOWA

CITY           SKY/WX    TMP DP  RH WIND       PRES   REMARKS
ATLANTIC *     SUNNY     64  30  27 S7        30.13F
AUDUBON *      SUNNY     66  21  18 SW9       30.13F
CLARINDA *     SUNNY     64  32  29 CALM      30.16F
COUNCIL BLFS * SUNNY     64  34  32 SW7G17    30.13F
CRESTON *      SUNNY     64  30  27 CALM      30.15F
HARLAN  *      SUNNY     64  28  25 SW9G17    30.15F
LAMONI         SUNNY     64  33  31 CALM      30.14F
RED OAK *      SUNNY     66  34  30 S10       30.14S
SHENANDOAH *   SUNNY     66  28  24 SW7G13    30.14F
$$

IAZ047>049-059>061-072>074-084-231800-
   CENTRAL IOWA

CITY           SKY/WX    TMP DP  RH WIND       PRES   REMARKS
AMES           SUNNY     66  33  29 W9        30.11F
ANKENY *       SUNNY     66  32  28 VRB5      30.14F
BOONE *        SUNNY     66  32  28 W8        30.11F
CHARITON *     SUNNY     64  32  29 CALM      30.13F
DES MOINES     MOSUNNY   68  32  26 S10       30.13F
GRINNELL*      SUNNY     65  31  27 CALM      30.14F
KNOXVILLE *    SUNNY     64  32  29 CALM      30.12F
MARSHALLTOWN   SUNNY     65  32  29 CALM      30.11F
NEWTON *       SUNNY     66  30  26 CALM      30.12F
PELLA *        SUNNY     65  30  26 W3        30.14F
PERRY *          N/A     66  27  22 S13       30.12F
$$

IAZ004>006-015-016-023>025-035-036-231800-
   NORTH CENTRAL IOWA

CITY           SKY/WX    TMP DP  RH WIND       PRES   REMARKS
ALGONA *       SUNNY     68  32  26 SW14G24   30.07F
CLARION *      SUNNY     66  32  28 W15       30.09F
ESTHERVILLE    SUNNY     64  31  28 SW16G22   30.06F
FORT DODGE *   SUNNY     66  36  32 S13G18    30.10F
MASON CITY     SUNNY     66  31  27 W13       30.10F
FOREST CITY *    N/A     68  34  28 SW8       30.07F
WEBSTER CITY * SUNNY     68  30  24 SW12G20   30.08F
IOWA FALLS *     N/A     67  33  28 SW9       30.12F
$$

IAZ007>011-017>019-026>030-037>042-050>054-066-231800-
   NORTHEAST IOWA

CITY           SKY/WX    TMP DP  RH WIND       PRES   REMARKS
CEDAR RAPIDS   SUNNY     67  34  29 CALM      30.12F
CHARLES CITY * SUNNY     66  32  28 W7G17     30.10F
CLINTON *      SUNNY     66  37  34 N6        30.13F
DECORAH *      SUNNY     66  32  28 W8G15     30.09S
DUBUQUE        SUNNY     66  35  31 MISG      30.11F
MONTICELLO *   SUNNY     68  34  28 NW6       30.11F
OELWEIN *      SUNNY     66  34  30 W9        30.11F
WATERLOO       SUNNY     67  33  28 SW3       30.10F
$$

IAZ064-065-067-068-078-231800-
   EAST CENTRAL IOWA

CITY           SKY/WX    TMP DP  RH WIND       PRES   REMARKS
DAVENPORT      SUNNY     67  32  27 N6        30.13F
IOWA CITY      SUNNY     69  35  28 NE6       30.14F
MT. PLEASANT * SUNNY     66  29  25 E3        30.13F
MUSCATINE *    SUNNY     66  32  28 CALM      30.13F
QUAD CITIES    SUNNY     67  33  28 NE7       30.12F
$$

IAZ062-063-075>077-085>089-095>099-231800-
   SOUTHEAST IOWA

CITY           SKY/WX    TMP DP  RH WIND       PRES   REMARKS
BURLINGTON     SUNNY     65  33  30 NE9       30.13F
FAIRFIELD *    SUNNY     66  32  28 CALM      30.13F
FORT MADISON * SUNNY     68  36  30 NE5       30.14F
KEOKUK *       SUNNY     64  34  32 NE7       30.13S
OSKALOOSA *      N/A     65  31  28 CALM      30.14F
CENTERVILLE *    N/A     64  32  29 CALM      30.15F
OTTUMWA        SUNNY     65  34  31 CALM      30.13F
WASHINGTON *   SUNNY     66  30  26 SE8       30.14F
$$

ABBREVIATIONS USED IN REMARKS
   TC - TEMPERATURES IN CELSIUS
  WCI - WIND CHILL INDEX
   HX - HEAT INDEX
  VSB - VISIBILITY
$$





USA.gov is the U.S. government's official web portal to all federal, state and local government web resources and services.